WB7UVH Weather Reports


Display with metric or nautical units.
time (UTC)temp
F
wind
direction
speed
MPH
gust
MPH
rain 1hr
in
rain 24hr
in
rain mn
in
humidity
%
barometer
mb
20260831013004 71 252 0.0 7.0 0.00 0.00 0.00 59 1020.6
20260831011504 71 246 0.0 7.0 0.00 0.00 0.00 57 1020.8
20260831010003 71 258 0.0 0.0 0.00 0.00 0.00 54 1020.9
20260831004504 72 277 0.0 0.0 0.00 0.00 0.00 54 1021.0
20260831003005 72 250 0.0 0.0 0.00 0.00 0.00 53 1021.1
20260831001504 72 253 0.0 0.0 0.00 0.00 0.00 52 1021.3
20260831000004 73 286 0.0 0.0 0.00 0.00 0.00 51 1021.3
20260830234504 73 245 0.0 0.0 0.00 0.00 0.00 51 1021.3
20260830233003 74 250 0.0 0.0 0.00 0.00 0.00 51 1021.5
20260830231504 75 234 0.0 0.0 0.00 0.00 0.00 48 1021.6
20260830230004 74 231 0.0 0.0 0.00 0.00 0.00 49 1021.8
20260830224504 75 205 0.0 0.0 0.00 0.00 0.00 48 1022.1
20260830223003 75 230 0.0 0.0 0.00 0.00 0.00 48 1022.4
20260830221504 74 262 0.0 0.0 0.00 0.00 0.00 48 1022.6
20260830220004 74 242 0.0 0.0 0.00 0.00 0.00 48 1022.8
20260830214504 73 238 0.0 0.0 0.00 0.00 0.00 49 1023.1
20260830213004 75 254 0.0 0.0 0.00 0.00 0.00 48 1023.3
20260830211504 74 278 0.0 0.0 0.00 0.00 0.00 49 1023.6
20260830210004 73 269 0.0 0.0 0.00 0.00 0.00 51 1023.7
20260830204504 73 250 0.0 0.0 0.00 0.00 0.00 51 1023.8
20260830203004 72 294 0.0 0.0 0.00 0.00 0.00 53 1024.0
20260830201504 72 300 0.0 0.0 0.00 0.00 0.00 52 1024.1
20260830200004 72 262 0.0 0.0 0.00 0.00 0.00 53 1024.0
20260830194504 71 268 0.0 0.0 0.00 0.00 0.00 56 1024.2
20260830193004 70 244 0.0 0.0 0.00 0.00 0.00 56 1024.5
20260830191504 70 240 0.0 0.0 0.00 0.00 0.00 58 1024.6
20260830190004 69 221 0.0 0.0 0.00 0.00 0.00 57 1024.8
20260830184504 67 163 0.0 0.0 0.00 0.00 0.00 59 1025.0
20260830183004 65 252 0.0 0.0 0.00 0.00 0.00 65 1025.1
20260830180005 64 249 0.0 0.0 0.00 0.00 0.00 64 1025.2
20260830174503 65 275 0.0 0.0 0.00 0.00 0.00 64 1025.1
20260830173004 65 229 0.0 0.0 0.00 0.00 0.00 67 1025.1
20260830171504 64 265 0.0 0.0 0.00 0.00 0.00 71 1025.2
20260830170004 65 283 0.0 0.0 0.00 0.00 0.00 73 1025.2
20260830164504 64 279 0.0 0.0 0.00 0.00 0.00 74 1025.2
20260830163004 63 226 0.0 0.0 0.00 0.00 0.00 76 1025.3
20260830161504 61 246 0.0 0.0 0.00 0.00 0.00 81 1025.4
20260830160004 61 238 0.0 0.0 0.00 0.00 0.00 80 1025.5
20260830154504 61 225 0.0 0.0 0.00 0.00 0.00 78 1025.6
20260830153004 59 225 0.0 0.0 0.00 0.00 0.00 81 1025.6
20260830151505 58 229 0.0 0.0 0.00 0.00 0.00 82 1025.8
20260830150004 57 261 0.0 0.0 0.00 0.00 0.00 84 1025.8
20260830144504 57 282 0.0 0.0 0.00 0.00 0.00 85 1025.9
20260830143004 57 282 0.0 0.0 0.00 0.00 0.00 85 1025.8
20260830141504 57 278 0.0 0.0 0.00 0.00 0.00 85 1025.8
20260830140004 57 241 0.0 0.0 0.00 0.00 0.00 84 1025.7
20260830133004 57 241 0.0 0.0 0.00 0.01 0.00 84 1025.7
20260830131504 57 278 0.0 0.0 0.00 0.02 0.00 84 1025.6
20260830124504 57 278 0.0 0.0 0.00 0.03 0.00 84 1025.3
20260830121503 57 278 0.0 0.0 0.00 0.03 0.00 83 1025.2
20260830120005 57 278 0.0 0.0 0.00 0.03 0.00 83 1025.2
20260830114504 57 278 0.0 0.0 0.00 0.03 0.00 83 1025.1
20260830113004 57 282 0.0 0.0 0.00 0.03 0.00 83 1025.0
20260830111504 57 282 0.0 0.0 0.00 0.03 0.00 84 1024.9
20260830104504 57 282 0.0 0.0 0.00 0.03 0.00 85 1024.9
20260830103004 56 283 0.0 0.0 0.00 0.03 0.00 86 1024.8
20260830101503 56 284 0.0 0.0 0.00 0.03 0.00 87 1024.7
20260830100004 55 285 0.0 0.0 0.00 0.03 0.00 87 1024.8
20260830094504 55 285 0.0 0.0 0.00 0.03 0.00 87 1024.8
20260830093004 55 285 0.0 0.0 0.00 0.03 0.00 86 1024.6
20260830091505 55 285 0.0 0.0 0.00 0.03 0.00 86 1024.6
20260830090005 55 286 0.0 0.0 0.00 0.03 0.00 86 1024.7
20260830084504 55 286 0.0 0.0 0.00 0.03 0.00 85 1024.7
20260830083003 55 286 0.0 0.0 0.00 0.03 0.00 85 1024.8
20260830081504 55 286 0.0 0.0 0.00 0.03 0.00 84 1024.8
20260830080004 55 286 0.0 0.0 0.00 0.03 0.00 84 1024.8
20260830074504 55 286 0.0 1.0 0.00 0.03 0.00 84 1024.9
20260830073004 55 274 0.0 0.0 0.00 0.03 0.00 84 1024.8
20260830071504 55 273 0.0 0.0 0.00 0.03 0.00 83 1024.7
20260830070005 55 273 0.0 0.0 0.00 0.03 0.00 82 1024.6
20260830064504 56 273 0.0 0.0 0.00 0.03 0.03 81 1024.8
20260830063003 56 230 0.0 0.0 0.00 0.03 0.03 80 1024.7
20260830061504 56 229 0.0 0.0 0.00 0.03 0.03 79 1024.7
20260830060004 56 229 0.0 0.0 0.00 0.03 0.03 78 1024.7
20260830054505 57 229 0.0 0.0 0.00 0.03 0.03 78 1024.7
20260830053004 57 229 0.0 0.0 0.00 0.03 0.03 76 1024.7
20260830051504 58 229 0.0 0.0 0.00 0.03 0.03 75 1024.5
20260830050004 59 229 0.0 0.0 0.00 0.03 0.03 74 1024.6
20260830044504 59 229 0.0 0.0 0.00 0.03 0.03 73 1024.5
20260830043004 60 228 0.0 0.0 0.00 0.03 0.03 72 1024.4
20260830040004 61 228 0.0 0.0 0.00 0.03 0.03 71 1024.0
20260830033004 63 228 0.0 0.0 0.00 0.03 0.03 68 1023.6
20260830031504 64 228 0.0 0.0 0.00 0.03 0.03 65 1023.6
20260830030004 65 228 0.0 0.0 0.00 0.03 0.03 65 1023.4
20260830024504 66 224 0.0 0.0 0.00 0.03 0.03 65 1023.3
20260830023003 67 213 0.0 0.0 0.00 0.03 0.03 64 1023.2
20260830021504 67 237 0.0 0.0 0.00 0.03 0.03 64 1023.1
20260830020004 68 26 0.0 0.0 0.00 0.03 0.03 64 1023.0